TimeMST,TemperatureF,Dew PointF,Humidity,Sea Level PressureIn,VisibilityMPH,Wind Direction,Wind SpeedMPH,Gust SpeedMPH,PrecipitationIn,Events,Conditions,WindDirDegrees,DateUTC
12:15 AM,35.8,18.9,50,30.34,10.0,Calm,Calm,-,N/A,,Clear,0,2012-11-27 07:15:00
12:35 AM,31.5,17.2,56,30.34,10.0,Calm,Calm,-,N/A,,Clear,0,2012-11-27 07:35:00
12:55 AM,31.8,17.8,56,30.34,10.0,Calm,Calm,-,N/A,,Clear,0,2012-11-27 07:55:00
1:15 AM,30.2,17.1,58,30.35,10.0,NW,6.9,-,N/A,,Clear,310,2012-11-27 08:15:00
1:35 AM,31.1,18.3,59,30.35,10.0,WNW,3.5,-,N/A,,Clear,300,2012-11-27 08:35:00
1:55 AM,30.2,19.4,64,30.35,10.0,NW,8.1,-,N/A,,Clear,320,2012-11-27 08:55:00
2:15 AM,31.6,20.1,62,30.36,10.0,WNW,6.9,-,N/A,,Clear,300,2012-11-27 09:15:00
2:35 AM,31.1,20.5,65,30.36,10.0,NW,4.6,-,N/A,,Clear,320,2012-11-27 09:35:00
2:55 AM,31.3,20.3,64,30.36,10.0,NW,4.6,-,N/A,,Clear,310,2012-11-27 09:55:00
3:15 AM,28.4,18.7,67,30.35,10.0,WNW,5.8,-,N/A,,Clear,300,2012-11-27 10:15:00
3:35 AM,28.9,19.9,69,30.35,10.0,NW,4.6,-,N/A,,Clear,310,2012-11-27 10:35:00
3:55 AM,28.9,19.9,69,30.36,10.0,NW,4.6,-,N/A,,Clear,320,2012-11-27 10:55:00
4:15 AM,27.0,18.7,71,30.36,10.0,North,8.1,-,N/A,,Clear,350,2012-11-27 11:15:00
4:35 AM,26.6,19.4,74,30.36,10.0,North,5.8,-,N/A,,Clear,350,2012-11-27 11:35:00
4:55 AM,27.5,20.8,76,30.37,10.0,North,5.8,-,N/A,,Clear,10,2012-11-27 11:55:00
5:15 AM,28.2,20.8,74,30.37,10.0,North,3.5,-,N/A,,Clear,360,2012-11-27 12:15:00
5:35 AM,25.0,18.5,76,30.37,10.0,NW,4.6,-,N/A,,Clear,310,2012-11-27 12:35:00
5:55 AM,26.4,19.9,77,30.38,10.0,NNW,4.6,-,N/A,,Clear,330,2012-11-27 12:55:00
6:15 AM,24.8,19.0,79,30.39,10.0,NW,4.6,-,N/A,,Clear,320,2012-11-27 13:15:00
6:35 AM,23.0,16.7,77,30.39,10.0,NNW,4.6,-,N/A,,Clear,340,2012-11-27 13:35:00
6:55 AM,23.0,16.0,74,30.40,10.0,NNW,4.6,-,N/A,,Clear,330,2012-11-27 13:55:00
7:15 AM,24.8,17.4,74,30.41,10.0,NNW,5.8,-,N/A,,Clear,330,2012-11-27 14:15:00
7:35 AM,28.2,18.5,67,30.42,10.0,NNW,5.8,-,N/A,,Clear,330,2012-11-27 14:35:00
7:55 AM,32.0,21.7,66,30.43,10.0,NNW,3.5,-,N/A,,Clear,330,2012-11-27 14:55:00
8:15 AM,33.4,22.8,65,30.43,10.0,NNE,4.6,-,N/A,,Clear,20,2012-11-27 15:15:00
8:35 AM,36.0,23.7,61,30.44,10.0,North,6.9,-,N/A,,Clear,10,2012-11-27 15:35:00
8:55 AM,37.4,23.9,58,30.44,10.0,North,6.9,-,N/A,,Clear,10,2012-11-27 15:55:00
10:15 AM,42.4,24.3,49,30.44,10.0,North,3.5,-,N/A,,Clear,10,2012-11-27 17:15:00
10:35 AM,44.2,24.1,45,30.43,10.0,NNE,4.6,-,N/A,,Clear,20,2012-11-27 17:35:00
10:55 AM,46.6,24.3,42,30.42,10.0,NE,3.5,-,N/A,,Clear,50,2012-11-27 17:55:00
11:15 AM,47.8,23.7,39,30.41,10.0,North,3.5,-,N/A,,Clear,360,2012-11-27 18:15:00
11:35 AM,49.8,23.9,36,30.40,10.0,Calm,Calm,-,N/A,,Clear,0,2012-11-27 18:35:00
11:55 AM,50.0,23.9,36,30.39,10.0,Calm,Calm,-,N/A,,Clear,0,2012-11-27 18:55:00
12:15 PM,51.4,23.9,34,30.38,10.0,East,3.5,-,N/A,,Clear,80,2012-11-27 19:15:00
12:35 PM,52.3,23.5,33,30.36,10.0,Calm,Calm,-,N/A,,Clear,0,2012-11-27 19:35:00
12:55 PM,52.5,23.0,32,30.35,10.0,ESE,3.5,-,N/A,,Clear,110,2012-11-27 19:55:00
1:15 PM,53.6,22.8,30,30.35,10.0,Calm,Calm,-,N/A,,Clear,0,2012-11-27 20:15:00
1:35 PM,54.0,22.8,30,30.34,10.0,Calm,Calm,-,N/A,,Clear,0,2012-11-27 20:35:00
1:55 PM,54.7,22.8,29,30.33,10.0,Calm,Calm,-,N/A,,Clear,0,2012-11-27 20:55:00
2:15 PM,55.8,22.6,28,30.33,10.0,SE,4.6,-,N/A,,Clear,130,2012-11-27 21:15:00
2:35 PM,56.3,22.8,27,30.32,10.0,SSE,3.5,-,N/A,,Clear,150,2012-11-27 21:35:00
2:55 PM,56.8,22.6,27,30.31,10.0,Calm,Calm,-,N/A,,Clear,0,2012-11-27 21:55:00
3:15 PM,56.8,22.8,27,30.31,10.0,Calm,Calm,-,N/A,,Clear,0,2012-11-27 22:15:00
3:55 PM,56.3,22.1,27,30.30,10.0,Calm,Calm,-,N/A,,Clear,0,2012-11-27 22:55:00
4:15 PM,55.9,22.1,27,30.30,10.0,SSE,4.6,-,N/A,,Clear,160,2012-11-27 23:15:00
4:35 PM,54.5,21.6,28,30.30,10.0,South,3.5,-,N/A,,Clear,180,2012-11-27 23:35:00
4:55 PM,52.2,21.2,30,30.30,10.0,South,3.5,-,N/A,,Clear,170,2012-11-27 23:55:00
5:15 PM,50.7,20.7,31,30.30,10.0,Calm,Calm,-,N/A,,Clear,0,2012-11-28 00:15:00
5:35 PM,48.2,20.3,33,30.30,10.0,Calm,Calm,-,N/A,,Clear,0,2012-11-28 00:35:00
5:55 PM,47.1,20.3,35,30.30,10.0,Calm,Calm,-,N/A,,Clear,0,2012-11-28 00:55:00
6:15 PM,45.1,18.9,35,30.31,10.0,Calm,Calm,-,N/A,,Clear,0,2012-11-28 01:15:00
6:35 PM,43.0,19.0,38,30.31,10.0,Calm,Calm,-,N/A,,Clear,0,2012-11-28 01:35:00
6:55 PM,41.7,17.6,38,30.32,10.0,Calm,Calm,-,N/A,,Clear,0,2012-11-28 01:55:00
7:15 PM,39.0,15.3,38,30.32,10.0,NNE,3.5,-,N/A,,Clear,20,2012-11-28 02:15:00
7:35 PM,39.4,16.9,40,30.33,10.0,NNE,3.5,-,N/A,,Clear,20,2012-11-28 02:35:00
7:55 PM,38.1,16.5,42,30.33,10.0,NE,3.5,-,N/A,,Clear,40,2012-11-28 02:55:00
8:15 PM,38.8,17.2,42,30.33,10.0,Calm,Calm,-,N/A,,Clear,0,2012-11-28 03:15:00
8:35 PM,38.3,17.6,43,30.33,10.0,Calm,Calm,-,N/A,,Clear,0,2012-11-28 03:35:00
8:55 PM,37.9,18.0,45,30.33,10.0,Calm,Calm,-,N/A,,Clear,0,2012-11-28 03:55:00
9:15 PM,35.6,14.2,42,30.33,10.0,Calm,Calm,-,N/A,,Clear,0,2012-11-28 04:15:00
9:35 PM,33.4,11.1,40,30.33,10.0,SSE,3.5,-,N/A,,Clear,150,2012-11-28 04:35:00
9:55 PM,36.3,18.9,49,30.33,10.0,Calm,Calm,-,N/A,,Clear,0,2012-11-28 04:55:00
10:15 PM,41.2,20.1,43,30.34,10.0,Calm,Calm,-,N/A,,Clear,0,2012-11-28 05:15:00
10:35 PM,37.0,18.0,46,30.35,10.0,NNW,3.5,-,N/A,,Clear,330,2012-11-28 05:35:00
10:55 PM,34.3,17.4,50,30.34,10.0,NNW,3.5,-,N/A,,Clear,340,2012-11-28 05:55:00
11:15 PM,33.3,17.6,53,30.34,10.0,NW,4.6,-,N/A,,Clear,310,2012-11-28 06:15:00
11:35 PM,32.2,16.7,53,30.35,10.0,WNW,4.6,-,N/A,,Clear,300,2012-11-28 06:35:00
11:55 PM,33.3,16.5,50,30.35,10.0,West,4.6,-,N/A,,Clear,280,2012-11-28 06:55:00